{"data":{"norad_id":43831,"intl_designator":"2018-102A","name":"SAUDISAT 5A","alt_names":[],"object_type":"PAYLOAD","status":"ACTIVE","operator":null,"country":"SAUD","launch_date":"2018-12-07","launch_site_code":"JSC","launch_vehicle":null,"mission":null,"orbit_class":"UNKNOWN","rcs_meters":null,"size_class":null,"mass_kg":null,"dimensions":null,"purposes":["earth_obs"],"wikipedia_slug":null,"has_3d_model":false,"image_url":null,"decayed_at":null,"tle_current":{"epoch":"2026-05-25T04:15:40.624992Z","epoch_age_seconds":59789,"freshness":"FRESH","line1":"1 43831U 18102A   26145.17755353  .00005011  00000+0  18726-3 0  9998","line2":"2 43831  97.3080 207.2046 0008955 206.0053 154.0738 15.27771638412161","mean_motion":15.27771638,"eccentricity":0.0008955,"inclination_deg":97.308,"raan_deg":207.2046,"arg_perigee_deg":206.0053,"mean_anomaly_deg":154.0738,"bstar":0.00018726,"rev_number":41216,"period_min":94.254924242808,"perigee_km":476.33164457483,"apogee_km":488.61900124516,"semimajor_km":6860.61232291,"source":"CELESTRAK","updated_at":"2026-05-25T13:38:12.831728Z"}}}